User: anonymous   Login
Location: *
(53.9002°N, 27.5624°E)
Time: 09:59:13
(UTC+00:00)
Language:

Cosmos 1939 Rocket - Orbit

View from above orbital plane
View from above orbital plane
View from above satellite
View from above satellite

Ground track
Ground track

The orbit data is extracted from the following two-line orbital elements,

1 19046U 88032B   20025.56185110 +.00000684 +00000-0 +55013-4 0  9993
2 19046 097.4139 052.9037 0037367 336.6076 023.3448 15.02650403715359
Epoch (UTC): 25 January 2020 13:29:03
Eccentricity: 0.0037367
inclination: 97.4139°
perigee height: 533 km
apogee height: 584 km
right ascension of ascending node: 52.9037°
argument of perigee: 336.6076°
revolutions per day: 15.02650403
mean anomaly at epoch: 23.3448°
orbit number at epoch: 71535

The dashed part of the orbit path shows where the satellite is in the earth's shadow,  

DLR